EW3064 Weather Reports


time (UTC)temp
F
wind
direction
speed
knots
gust
knots
rain 1hr
in
rain 24hr
in
rain mn
in
humidity
%
barometer
mb
20260505130107 52 299 0.9 3.5 0.00 0.00 0.00 89 1016.3
20260505124105 53 171 0.9 1.7 0.00 0.00 0.00 88 1016.3
20260505123104 53 171 0.9 3.5 0.00 0.00 0.00 88 1016.3
20260505122103 53 171 0.9 3.5 0.00 0.00 0.00 88 1016.3
20260505121103 53 290 0.9 6.1 0.00 0.00 0.00 88 1015.9
20260505115959 53 239 0.9 7.0 0.00 0.00 0.00 88 1015.9
20260505114958 53 299 0.9 7.0 0.00 0.00 0.00 88 1015.9
20260505113956 53 274 0.9 4.3 0.00 0.00 0.00 88 1015.9
20260505112955 54 249 1.7 5.2 0.00 0.00 0.00 88 1015.9
20260505111954 54 304 1.7 5.2 0.00 0.00 0.00 87 1015.9
20260505110953 54 287 1.7 5.2 0.00 0.00 0.00 87 1015.9
20260505101948 56 268 1.7 5.2 0.00 0.00 0.00 85 1015.6
20260505100947 56 278 0.9 6.1 0.00 0.00 0.00 85 1015.6
20260505095946 56 294 1.7 6.1 0.00 0.00 0.00 85 1015.2
20260505094945 56 271 1.7 5.2 0.00 0.00 0.00 85 1015.2
20260505093913 57 253 1.7 5.2 0.00 0.00 0.00 84 1015.2
20260505092912 57 253 1.7 5.2 0.00 0.00 0.00 83 1015.2
20260505091911 57 283 2.6 5.2 0.00 0.00 0.00 83 1014.9
20260505090910 58 284 3.5 4.3 0.00 0.00 0.00 82 1014.9
20260505085909 58 229 1.7 3.5 0.00 0.00 0.00 81 1014.9
20260505084908 59 232 1.7 3.5 0.00 0.00 0.00 81 1014.9
20260505083908 59 209 0.9 3.5 0.00 0.00 0.00 81 1014.9
20260505082907 59 209 0.9 4.3 0.00 0.00 0.00 81 1014.9
20260505081905 59 339 0.9 4.3 0.00 0.00 0.00 80 1014.9
20260505080904 60 291 0.0 0.0 0.00 0.00 0.00 80 1014.9
20260505075903 60 291 0.0 0.0 0.00 0.00 0.00 79 1014.9
20260505074831 60 291 0.0 0.0 0.00 0.00 0.00 79 1014.9
20260505073759 60 291 0.0 0.0 0.00 0.00 0.00 78 1014.6
20260505072758 60 291 0.0 0.0 0.00 0.00 0.00 78 1014.6
20260505071757 60 291 0.0 0.9 0.00 0.00 0.00 77 1014.6
20260505070756 60 291 0.9 0.9 0.00 0.00 0.00 76 1014.6
20260505065756 60 291 0.0 0.0 0.00 0.00 0.00 76 1014.6
20260505064755 60 291 0.0 1.7 0.00 0.00 0.00 76 1014.2
20260505063754 60 291 0.0 1.7 0.00 0.00 0.00 76 1014.2
20260505062753 60 291 0.0 0.0 0.00 0.00 0.00 76 1014.6
20260505061752 60 291 0.0 0.9 0.00 0.00 0.00 76 1014.2
20260505060751 60 291 0.9 0.9 0.00 0.00 0.00 77 1014.2
20260505055750 60 291 0.0 1.7 0.00 0.00 0.00 77 1014.2
20260505054748 60 291 0.9 1.7 0.00 0.00 0.00 77 1014.2
20260505053716 60 291 0.0 0.9 0.00 0.00 0.00 77 1014.2
20260505052715 60 291 0.9 0.9 0.00 0.00 0.00 77 1014.2
20260505051715 60 291 0.9 0.9 0.00 0.00 0.00 77 1014.2
20260505050713 60 291 0.9 1.7 0.00 0.00 0.00 76 1014.2
20260505041636 63 292 0.9 4.3 0.00 0.00 0.00 71 1013.5
20260505040635 63 291 1.7 4.3 0.00 0.00 0.00 70 1013.5
20260505035634 63 297 0.9 5.2 0.00 0.00 0.00 69 1013.2
20260505034633 64 287 1.7 5.2 0.00 0.00 0.00 68 1013.2
20260505033632 64 290 1.7 7.8 0.00 0.00 0.00 67 1013.2
20260505032630 65 310 2.6 7.8 0.00 0.00 0.00 66 1013.2
20260505031630 66 280 2.6 6.1 0.00 0.00 0.00 64 1012.9
20260505030629 66 327 0.9 4.3 0.00 0.00 0.00 61 1012.9
20260505025628 67 318 0.9 5.2 0.00 0.00 0.00 61 1012.5
20260505024627 67 290 1.7 5.2 0.00 0.00 0.00 59 1012.5
20260505023555 68 263 1.7 4.3 0.00 0.00 0.00 58 1012.5
20260505022553 69 296 1.7 7.0 0.00 0.00 0.00 56 1012.5
20260505021552 70 287 2.6 7.0 0.00 0.00 0.00 54 1012.5
20260505020551 71 292 2.6 6.1 0.00 0.00 0.00 52 1012.5
20260505015550 71 286 3.5 7.0 0.00 0.00 0.00 51 1012.5
20260505014550 71 255 4.3 7.8 0.00 0.00 0.00 50 1012.5
20260505013548 71 284 3.5 7.8 0.00 0.00 0.00 50 1012.5
20260505012547 72 284 2.6 7.8 0.00 0.00 0.00 47 1012.5
20260505011546 72 290 3.5 7.8 0.00 0.00 0.00 46 1012.5
20260505010545 73 284 2.6 8.7 0.00 0.00 0.00 46 1012.5
20260505005544 73 283 4.3 10.4 0.00 0.00 0.00 46 1012.5
20260505004543 73 278 5.2 10.4 0.00 0.00 0.00 46 1012.2
20260505003542 74 271 2.6 9.6 0.00 0.00 0.00 44 1012.2
20260505002541 74 279 4.3 9.6 0.00 0.00 0.00 43 1012.2
20260505001540 74 263 3.5 13.0 0.00 0.00 0.00 45 1012.2
20260505000539 74 275 2.6 13.0 0.00 0.00 0.00 46 1012.2
20260504235537 74 286 5.2 9.6 0.00 0.00 0.00 44 1012.2
20260504234536 74 290 3.5 10.4 0.00 0.00 0.00 44 1012.2
20260504233504 75 279 5.2 9.6 0.00 0.00 0.00 42 1012.2
20260504232504 75 278 2.6 9.6 0.00 0.00 0.00 45 1012.2
20260504231503 75 272 1.7 11.3 0.00 0.00 0.00 43 1012.2
20260504230502 75 281 4.3 11.3 0.00 0.00 0.00 44 1012.2
20260504225429 75 283 3.5 10.4 0.00 0.00 0.00 44 1012.2
20260504224428 75 289 3.5 11.3 0.00 0.00 0.00 46 1012.5
20260504223428 75 280 4.3 11.3 0.00 0.00 0.00 46 1012.5
20260504222427 75 269 6.1 9.6 0.00 0.00 0.00 45 1012.5
20260504221426 75 286 4.3 10.4 0.00 0.00 0.00 46 1012.5
20260504220425 75 290 4.3 10.4 0.00 0.00 0.00 43 1012.5
20260504215423 74 276 3.5 10.4 0.00 0.00 0.00 45 1012.5
20260504214352 74 287 4.3 11.3 0.00 0.00 0.00 45 1012.5
20260504213351 74 288 6.1 11.3 0.00 0.00 0.00 46 1012.5
20260504212350 74 291 4.3 9.6 0.00 0.00 0.00 46 1012.5
20260504211348 74 276 3.5 13.0 0.00 0.00 0.00 44 1012.9
20260504210347 74 287 2.6 13.0 0.00 0.00 0.00 46 1012.5
20260504205346 75 229 2.6 10.4 0.00 0.00 0.00 47 1012.5
20260504204345 74 275 3.5 10.4 0.00 0.00 0.00 49 1012.5
20260504203345 74 252 4.3 10.4 0.00 0.00 0.00 49 1012.9
20260504202344 74 351 1.7 9.6 0.00 0.00 0.00 49 1012.9
20260504201343 73 268 2.6 11.3 0.00 0.00 0.00 51 1012.5
20260504200311 73 268 3.5 11.3 0.00 0.00 0.00 50 1012.9
20260504195310 74 286 4.3 8.7 0.00 0.00 0.00 50 1012.9
20260504194308 73 279 2.6 9.6 0.00 0.00 0.00 50 1012.9
20260504193308 73 280 3.5 9.6 0.00 0.00 0.00 50 1012.9
20260504192307 73 281 2.6 7.8 0.00 0.00 0.00 51 1012.5
20260504191234 72 266 1.7 8.7 0.00 0.00 0.00 53 1012.9
20260504190234 72 311 1.7 8.7 0.00 0.00 0.00 52 1012.9
20260504185233 72 288 5.2 8.7 0.00 0.00 0.00 52 1012.9
20260504184231 71 277 3.5 8.7 0.00 0.00 0.00 54 1012.9
20260504183230 71 297 3.5 12.2 0.00 0.00 0.00 54 1012.9
20260504182229 71 281 3.5 12.2 0.00 0.00 0.00 54 1012.9
20260504181228 71 284 3.5 9.6 0.00 0.00 0.00 54 1012.9
20260504180156 70 252 5.2 12.2 0.00 0.00 0.00 55 1013.2
20260504175155 70 268 4.3 12.2 0.00 0.00 0.00 55 1012.9
20260504174123 70 287 5.2 9.6 0.00 0.00 0.00 55 1013.2
20260504173122 69 285 2.6 7.0 0.00 0.00 0.00 57 1013.2
20260504172121 68 292 3.5 7.8 0.00 0.00 0.00 57 1013.2
20260504171120 66 279 2.6 6.1 0.00 0.00 0.00 62 1013.2
20260504170118 65 203 0.9 4.3 0.00 0.00 0.00 63 1013.5
20260504160110 57 266 1.7 3.5 0.00 0.00 0.00 73 1014.2
20260504151105 53 102 0.9 1.7 0.00 0.00 0.00 80 1014.2
20260504150104 52 102 0.9 1.7 0.00 0.00 0.00 81 1014.2
20260504141059 48 102 0.9 0.9 0.00 0.00 0.00 88 1014.2